When you browse on this site, cookies collect data to enhance your experience and personalize the content and advertising you see.
Visit our Privacy Policy to learn more. By continuing to use the site, you agree to this use of cookies and data.
  • en France
  • Liste des pays
  • À 7 jours
  • Température de l'eau
  • Carte satellitaire
  • Carte météo
  • Widgets météo
  • user-avatar
    Se connecter

    Météo par heure à Brégence

    Ce jour, 11 Décembre, Mardi

    Heure Température Précipitation Vent Pression Humidité
    00:00 -7°C° 0.6 mm 4 m/s 646 mmHg 94%
    01:00 -6°C° 0.6 mm 3 m/s 646 mmHg 95%
    02:00 -7°C° 0.5 mm 3 m/s 646 mmHg 95%
    03:00 -7°C° 0.5 mm 3 m/s 646 mmHg 95%
    04:00 -6°C° 0.5 mm 2 m/s 646 mmHg 95%
    05:00 -7°C° 0.2 mm 2 m/s 646 mmHg 95%
    06:00 -7°C° 0.2 mm 2 m/s 646 mmHg 95%
    07:00 -7°C° 0.2 mm 2 m/s 647 mmHg 95%
    08:00 -7°C° 0.1 mm 2 m/s 647 mmHg 94%
    09:00 -6°C° 0.1 mm 2 m/s 647 mmHg 92%
    10:00 -6°C° 0.1 mm 2 m/s 647 mmHg 91%
    11:00 -5°C° 0.1 mm 2 m/s 647 mmHg 87%
    12:00 -5°C° 0.1 mm 2 m/s 647 mmHg 84%
    13:00 -4°C° 0.1 mm 2 m/s 647 mmHg 81%
    14:00 -3°C° 0.1 mm 1 m/s 646 mmHg 83%
    15:00 -4°C° 0.1 mm 1 m/s 646 mmHg 85%
    16:00 -6°C° 0.1 mm 1 m/s 646 mmHg 87%
    17:00 -7°C° 0 mm 1 m/s 646 mmHg 86%
    18:00 -9°C° 0 mm 2 m/s 646 mmHg 86%
    19:00 -10°C° 0 mm 2 m/s 646 mmHg 86%
    20:00 -12°C° 0 mm 2 m/s 646 mmHg 85%
    21:00 -12°C° 0 mm 2 m/s 645 mmHg 83%
    22:00 -12°C° 0 mm 2 m/s 645 mmHg 82%
    23:00 -12°C° 0 mm 2 m/s 645 mmHg 81%

    Demain, 12 Décembre, Mercredi

    Heure Température Précipitation Vent Pression Humidité
    00:00 -13°C° 0 mm 2 m/s 645 mmHg 80%
    01:00 -13°C° 0 mm 2 m/s 645 mmHg 79%
    02:00 -13°C° 0 mm 2 m/s 645 mmHg 79%
    03:00 -13°C° 0 mm 2 m/s 645 mmHg 79%
    04:00 -13°C° 0 mm 2 m/s 645 mmHg 78%
    05:00 -13°C° 0 mm 2 m/s 644 mmHg 78%
    06:00 -13°C° 0 mm 2 m/s 644 mmHg 77%
    07:00 -13°C° 0 mm 2 m/s 644 mmHg 77%
    08:00 -12°C° 0 mm 2 m/s 645 mmHg 76%
    09:00 -9°C° 0 mm 1 m/s 645 mmHg 75%
    10:00 -8°C° 0 mm 1 m/s 645 mmHg 75%
    11:00 -6°C° 0 mm 1 m/s 645 mmHg 72%
    12:00 -4°C° 0 mm 1 m/s 645 mmHg 70%
    13:00 -3°C° 0 mm 1 m/s 645 mmHg 68%
    14:00 -4°C° 0 mm 1 m/s 644 mmHg 73%
    15:00 -6°C° 0 mm 1 m/s 644 mmHg 79%
    16:00 -7°C° 0 mm 1 m/s 643 mmHg 84%
    17:00 -9°C° 0 mm 2 m/s 643 mmHg 83%
    18:00 -10°C° 0 mm 2 m/s 643 mmHg 82%
    19:00 -12°C° 0 mm 2 m/s 643 mmHg 81%
    20:00 -12°C° 0 mm 2 m/s 643 mmHg 79%
    21:00 -12°C° 0 mm 2 m/s 643 mmHg 77%
    22:00 -12°C° 0 mm 2 m/s 642 mmHg 74%
    23:00 -13°C° 0 mm 2 m/s 642 mmHg 73%

    Après-demain, 13 Décembre, Jeudi

    Heure Température Précipitation Vent Pression Humidité
    00:00 -13°C° 0 mm 2 m/s 642 mmHg 72%
    01:00 -13°C° 0 mm 2 m/s 642 mmHg 71%
    02:00 -13°C° 0 mm 2 m/s 641 mmHg 71%
    03:00 -13°C° 0 mm 2 m/s 641 mmHg 71%
    04:00 -13°C° 0 mm 2 m/s 641 mmHg 70%
    05:00 -14°C° 0 mm 2 m/s 640 mmHg 70%
    06:00 -14°C° 0 mm 2 m/s 640 mmHg 70%
    07:00 -14°C° 0 mm 2 m/s 640 mmHg 70%
    08:00 -13°C° 0 mm 2 m/s 640 mmHg 71%
    09:00 -12°C° 0 mm 2 m/s 640 mmHg 71%
    10:00 -10°C° 0 mm 2 m/s 640 mmHg 71%
    11:00 -8°C° 0 mm 2 m/s 640 mmHg 70%
    12:00 -7°C° 0 mm 2 m/s 640 mmHg 69%
    13:00 -6°C° 0 mm 2 m/s 640 mmHg 68%
    14:00 -7°C° 0 mm 2 m/s 640 mmHg 72%
    15:00 -8°C° 0 mm 2 m/s 640 mmHg 76%
    16:00 -9°C° 0 mm 2 m/s 640 mmHg 80%
    17:00 -10°C° 0 mm 2 m/s 640 mmHg 80%
    18:00 -12°C° 0 mm 2 m/s 640 mmHg 80%
    19:00 -13°C° 0 mm 2 m/s 640 mmHg 80%
    20:00 -13°C° 0 mm 2 m/s 640 mmHg 79%
    21:00 -13°C° 0 mm 2 m/s 640 mmHg 78%
    22:00 -13°C° 0 mm 2 m/s 641 mmHg 78%
    23:00 -13°C° 0 mm 2 m/s 641 mmHg 78%

    14 Décembre, Vendredi

    Heure Température Précipitation Vent Pression Humidité
    00:00 -13°C° 0 mm 2 m/s 641 mmHg 78%
    01:00 -13°C° 0 mm 2 m/s 641 mmHg 78%
    02:00 -13°C° 0 mm 2 m/s 641 mmHg 78%
    03:00 -13°C° 0 mm 2 m/s 641 mmHg 78%
    04:00 -13°C° 0 mm 2 m/s 641 mmHg 78%
    05:00 -13°C° 0 mm 2 m/s 641 mmHg 77%
    06:00 -13°C° 0 mm 2 m/s 641 mmHg 77%
    07:00 -13°C° 0 mm 2 m/s 641 mmHg 76%
    08:00 -10°C° 0 mm 1 m/s 641 mmHg 75%
    09:00 -9°C° 0 mm 1 m/s 642 mmHg 74%
    10:00 -8°C° 0 mm 1 m/s 642 mmHg 73%
    11:00 -6°C° 0 mm 1 m/s 643 mmHg 69%
    12:00 -4°C° 0 mm 1 m/s 643 mmHg 66%
    13:00 -3°C° 0 mm 1 m/s 643 mmHg 63%
    14:00 -4°C° 0 mm 1 m/s 643 mmHg 67%
    15:00 -6°C° 0 mm 1 m/s 643 mmHg 72%
    16:00 -7°C° 0 mm 0 m/s 643 mmHg 76%
    17:00 -8°C° 0 mm 1 m/s 643 mmHg 75%
    18:00 -9°C° 0 mm 1 m/s 644 mmHg 74%
    19:00 -9°C° 0 mm 1 m/s 644 mmHg 73%
    20:00 -9°C° 0 mm 1 m/s 644 mmHg 72%
    21:00 -10°C° 0 mm 1 m/s 644 mmHg 70%
    22:00 -10°C° 0 mm 1 m/s 645 mmHg 69%
    23:00 -10°C° 0 mm 1 m/s 645 mmHg 69%

    15 Décembre, Samedi

    Heure Température Précipitation Vent Pression Humidité
    00:00 -10°C° 0 mm 1 m/s 645 mmHg 69%
    01:00 -10°C° 0 mm 1 m/s 645 mmHg 69%
    02:00 -10°C° 0 mm 1 m/s 646 mmHg 70%
    03:00 -12°C° 0 mm 2 m/s 646 mmHg 70%
    04:00 -12°C° 0 mm 2 m/s 646 mmHg 71%
    05:00 -12°C° 0 mm 2 m/s 646 mmHg 72%
    06:00 -12°C° 0 mm 2 m/s 646 mmHg 73%
    07:00 -12°C° 0 mm 2 m/s 647 mmHg 74%
    08:00 -9°C° 0 mm 1 m/s 647 mmHg 72%
    09:00 -7°C° 0 mm 1 m/s 648 mmHg 71%
    10:00 -6°C° 0 mm 1 m/s 648 mmHg 70%
    11:00 -4°C° 0 mm 1 m/s 648 mmHg 68%
    12:00 -2°C° 0 mm 1 m/s 648 mmHg 66%
    13:00 -2°C° 0 mm 0 m/s 648 mmHg 64%
    14:00 -2°C° 0 mm 1 m/s 648 mmHg 67%
    15:00 -3°C° 0 mm 1 m/s 648 mmHg 69%
    16:00 -4°C° 0 mm 1 m/s 647 mmHg 71%
    17:00 -6°C° 0 mm 1 m/s 647 mmHg 69%
    18:00 -6°C° 0 mm 1 m/s 647 mmHg 66%
    19:00 -7°C° 0 mm 1 m/s 647 mmHg 64%
    20:00 -7°C° 0 mm 1 m/s 647 mmHg 63%
    21:00 -7°C° 0 mm 2 m/s 647 mmHg 62%
    22:00 -7°C° 0 mm 2 m/s 647 mmHg 61%
    23:00 -7°C° 0 mm 2 m/s 647 mmHg 60%

    16 Décembre, Dimanche

    Heure Température Précipitation Vent Pression Humidité
    00:00 -6°C° 0 mm 2 m/s 647 mmHg 60%
    01:00 -6°C° 0 mm 2 m/s 647 mmHg 60%
    02:00 -3°C° 0 mm 1 m/s 647 mmHg 61%
    03:00 -2°C° 0 mm 1 m/s 647 mmHg 62%
    04:00 -2°C° 0 mm 1 m/s 647 mmHg 64%
    05:00 -1°C° 0.3 mm 1 m/s 647 mmHg 68%
    06:00 -1°C° 0.3 mm 1 m/s 647 mmHg 71%
    07:00 -1°C° 0.3 mm 1 m/s 647 mmHg 75%
    08:00 0°C° 0.8 mm 1 m/s 647 mmHg 80%
    09:00 0°C° 0.8 mm 1 m/s 647 mmHg 85%
    10:00 +1°C° 0.8 mm 1 m/s 647 mmHg 90%
    11:00 +1°C° 0.8 mm 1 m/s 647 mmHg 92%
    12:00 +2°C° 0.8 mm 1 m/s 647 mmHg 94%
    13:00 +2°C° 0.8 mm 1 m/s 646 mmHg 97%
    14:00 +2°C° 0.3 mm 1 m/s 646 mmHg 96%
    15:00 +2°C° 0.3 mm 1 m/s 646 mmHg 95%
    16:00 +2°C° 0.3 mm 1 m/s 646 mmHg 94%
    17:00 +2°C° 0.7 mm 1 m/s 646 mmHg 94%
    18:00 +2°C° 0.7 mm 1 m/s 646 mmHg 93%
    19:00 +2°C° 0.7 mm 1 m/s 646 mmHg 93%
    20:00 +1°C° 1.6 mm 1 m/s 646 mmHg 94%
    21:00 +1°C° 1.6 mm 1 m/s 646 mmHg 95%
    22:00 +1°C° 1.6 mm 1 m/s 647 mmHg 96%
    23:00 +1°C° 0.9 mm 1 m/s 647 mmHg 96%
    Voir plus